Location: Conflandey
(47.7287°N, 6.0456°E)
Time: 02:29:26
(UTC+00:00)

SL-16 R/B - Pass Details

Date: 24 October 2021
Orbit: 842 x 846 km, 71.0° (Epoch: 28 November)

Event Time Altitude Azimuth Distance (km) Brightness Sun altitude
Rises 19:37:21 0° 252° (WSW) 3,397 6.1 -31.7°
Reaches altitude 10° 19:40:23 10° 268° (W) 2,467 5.4 -32.2°
Maximum altitude 19:44:39 21° 317° (NW) 1,799 4.4 -32.9°
Drops below altitude 10° 19:48:56 10° 7° (N) 2,478 4.7 -33.5°
Enters shadow 19:49:47 - 12° (NNE) 2,721 4.9 -33.7°
